Regional Weather Roundup
Issued by NWS Green Bay, WI

Home | Current Version | Previous Version | Graphics & Text | Print | Product List | Glossary Off
Versions: 1 2 3 4 5 6 7 8 9 10 11 12 13 14 15 16 17 18 19 20 21 22 23 24 25 26 27 28 29 30 31 32 33 34 35 36 37 38 39 40 41 42 43 44 45 46 47 48 49 50

000
ASUS43 KGRB 280259
RWRGRB

NORTH-CENTRAL AND NORTHEAST WISCONSIN REGIONAL WEATHER ROUNDUP
NATIONAL WEATHER SERVICE GREEN BAY WI
900 PM CST FRI FEB 27 2015

WIZ005-009-010>012-018-019-280400-
NORTH CENTRAL WISCONSIN

CITY           SKY/WX    TMP DP  RH WIND       PRES   REMARKS
IRONWOOD       CLEAR      9  -8  47 SW8       30.39R WCI  -4
MANITOWISH WTR NOT AVBL
ARBOR VITAE    NOT AVBL
EAGLE RIVER    NOT AVBL
LAND O LAKES   NOT AVBL
RHINELANDER    CLEAR      3  -7  63 SW7       30.42R WCI  -9
PHILLIPS       CLEAR      4  -8  58 SW5       30.43R WCI  -5
ANTIGO         NOT AVBL
TOMAHAWK       NOT AVBL
MERRILL        NOT AVBL
$$

WIZ013-073-280400-
NORTHEAST WISCONSIN

CITY           SKY/WX    TMP DP  RH WIND       PRES   REMARKS
IRON MOUNTAIN  CLEAR     10  -5  50 W7        30.41R WCI  -1
MARINETTE      CLEAR     10  -6  48 SW6       30.51R WCI   1
$$

WIZ017-030-035>037-045-280400-
CENTRAL WISCONSIN

CITY           SKY/WX    TMP DP  RH WIND       PRES   REMARKS
MEDFORD        NOT AVBL
WAUSAU         CLEAR      4  -4  69 CALM      30.48R
MOSINEE        NOT AVBL
MARSHFIELD     CLEAR      4  -7  60 W6        30.50R WCI  -7
WISC RAPIDS    CLEAR      7  -9  48 W6        30.54R WCI  -3
STEVENS POINT  NOT AVBL
WAUPACA        NOT AVBL
SHAWANO        NOT AVBL
CLINTONVILLE   CLEAR     10  -6  48 SW5       30.53R WCI   2
$$

WIZ038-039-048-051-280400-
FOX VALLEY

CITY           SKY/WX    TMP DP  RH WIND       PRES   REMARKS
NWS GREEN BAY  CLEAR     11  -2  56 SW6       30.54R WCI   1
APPLETON       CLEAR     10  -6  48 SW9       30.54R WCI  -2
OSHKOSH        CLEAR     10  -4  53 SW5       30.55R WCI   2
FOND DU LAC    CLEAR      8  -3  61 SW9       30.56R WCI  -5
$$

WIZ022-050-052-280400-
EAST CENTRAL WISCONSIN

CITY           SKY/WX    TMP DP  RH WIND       PRES   REMARKS
STURGEON BAY   CLEAR     10  -6  48 SW6       30.53R WCI   1
MANITOWOC      NOT AVBL
SHEBOYGAN      CLEAR      7  -4  60 SW9       30.57R WCI  -7
$$

LMZ563-521-522-541>543-280400-
LAKESHORE

STATION/POSITION TIME  TEMP    WIND        PRES    VSBY  WAVE
                       AIR SEA DIR/SP/G                  HT/PER
                 (UTC) (F)     (DEG/KT/KT) (MB)    (MI)  (FT/S)
SHEBOYGAN LKSHOR 0200   14     230/  9/ 10 1036.9R
KEWAUNEE LKSHORE 0200   13     220/  8/ 10 1033.1R
NORTHPORT PIER   0200   13     220/  4/ 12 1032.5R
SISTER BAY LKSHO 0200   14     230/ 12/ 14   N/A
CHAMBERS ISLAND  0200   12     210/  7/ 12 1032.8R
MENOMINEE LKSHOR 0200   13     210/  8     1033.5R
$$



USA.gov is the U.S. government's official web portal to all federal, state and local government web resources and services.